Showing default

YAOGAN 42-01, 59395

Orbit data source: Space-Track

YAOGAN 42-01, 59395 is a payload satellite owned by PLA GAD (CN) in LEO that was launched on Tue, 02 Apr 2024 UTC via a CHANG ZHENG 2D launch vehicle from the Xichang Space Center, China (XSC). Payload-class satellites include a variety of spacecraft equipped with specific instruments for various scientific and technological missions. These include communications satellites like Starlink; space stations such as the ISS; scientific satellites like the Hubble; Earth observation satellites from companies like Planet Labs, Umbra, and HawkEye 360; GPS; miniature CubeSats for education and research; and military/defense satellites.

Loading next visibility...
Identifier
59395, 2024-063A
Orbit
LEO
Country
Flag of CNCN / PRC
Related business
Manufacturer
SAST
Mission
Operational Defense Imaging
Bus & Motor
Unknown
Mass
~1,500 kg wet, ~1,500 kg dry
Launch date (UTC)
2024-04-02 (2 years ago)
Launch vehicle
CHANG ZHENG 2D
Launch site
Xichang Space Center, China (XSC)
Object type
Payload
Rocket body
Debris
Shape & HBR
Box + 2 Pan, 2.5 m
Radar Cross Section
11.063 m², Large (>1 m²)

Expand to show TLE details & history
Last TLE update: 1 day ago

TLE from 1 day ago
0 YAOGAN 42-01
1 59395U 24063A   26172.22485514  .00006905  00000-0  28876-3 0  9999
2 59395  34.9975 100.4423 0003927 335.8047  24.2483 15.22894882123463
Epoch: 2026-06-21T05:23Z
TLE epoch observation values (Epoch: 2026-06-21T05:23:47.484Z)
Latitude
0.00001°
Longitude
110.06628°
Altitude
493.56 km
Speed
7.622 km/s
True Right ascension
06h 41m 46s
True Declination
0° 00' 00"
Sunlit
Object was in daylight at epoch
Visualization orbit readout
Latitude
Unknown
Longitude
Unknown
Altitude
Unknown
Speed
Unknown
Apparent Right ascension
Unknown
Apparent Declination
Unknown
Sunlit
N/A
Visualization observer readout
Local Sidereal Time
21:31:45
Azimuth
Unknown
Elevation
Unknown
Doppler factor
Unknown
Orbital elements
Apogee altitude
503.066 km
Perigee altitude
497.663 km
Semi-major axis
6,878.501 km
Eccentricity
0.00039
Inclination
34.9975°
RAAN
100.4423°
Arg. of periapsis
335.8047°
True anomaly
24.26679°
Mean anomaly
24.2483°
Eccentric anomaly
24.25754°
Mean motion
3.80454 °/min
Orbital period
94.62 mins
BSTAR
0.00028876
Loading maneuver chart data...
Computing Atmospheric mass density...
Loading historical data...
Loading historical data...
Loading historical data...
Loading historical data...
Loading historical data...
Loading historical data...
Loading historical data...
Other satellites on launch #63 in the year 2024 (2024-04-02 UTC)

Documentation

Showing up to 5 results
|